CW7218 Weather Reports


Display with metric or nautical units.
time (UTC)temp
F
wind
direction
speed
MPH
gust
MPH
rain 1hr
in
rain 24hr
in
rain mn
in
humidity
%
barometer
mb
20260904073029 74 45 4.0 8.0 0.00 0.00 0.00 65 1023.1
20260904072048 73 45 4.0 8.0 0.00 0.00 0.00 67 1023.2
20260904071028 72 45 4.0 8.0 0.00 0.00 0.00 67 1023.1
20260904070029 71 45 5.0 8.0 0.00 0.00 0.00 69 1023.1
20260904065029 70 45 6.0 8.0 0.00 0.00 0.00 70 1023.0
20260904064028 70 45 6.0 8.0 0.00 0.00 0.00 71 1023.0
20260904063028 69 45 5.0 7.0 0.00 0.00 0.00 71 1023.0
20260904062028 69 23 6.0 10.0 0.00 0.00 0.00 71 1023.0
20260904061028 69 45 5.0 7.0 0.00 0.00 0.00 72 1023.2
20260904060028 69 45 7.0 9.0 0.00 0.00 0.00 72 1023.2
20260904055028 69 45 7.0 10.0 0.00 0.00 0.00 72 1022.9
20260904054028 69 45 5.0 9.0 0.00 0.00 0.00 72 1023.1
20260904053048 68 45 5.0 8.0 0.00 0.00 0.00 72 1023.0
20260904052028 69 45 6.0 9.0 0.00 0.00 0.00 71 1023.0
20260904051028 69 45 4.0 6.0 0.00 0.00 0.00 71 1023.3
20260904050030 69 23 4.0 7.0 0.00 0.00 0.00 71 1023.4
20260904045030 69 23 6.0 9.0 0.00 0.00 0.00 72 1023.4
20260904044050 69 45 7.0 9.0 0.00 0.00 0.00 72 1023.6
20260904043030 69 45 7.0 11.0 0.00 0.00 0.00 73 1023.6
20260904042050 69 45 8.0 11.0 0.00 0.00 0.00 74 1023.5
20260904041030 68 68 8.0 10.0 0.00 0.00 0.00 75 1023.7
20260904040030 68 45 6.0 9.0 0.00 0.00 0.00 75 1023.7
20260904035030 68 45 7.0 10.0 0.00 0.00 0.00 76 1023.9
20260904034030 68 45 8.0 10.0 0.00 0.00 0.00 76 1024.0
20260904033030 69 45 7.0 10.0 0.00 0.00 0.00 75 1024.0
20260904032030 69 45 7.0 11.0 0.00 0.00 0.00 75 1024.3
20260904031030 70 45 8.0 11.0 0.00 0.00 0.00 73 1024.2
20260904030050 69 45 6.0 8.0 0.00 0.00 0.00 73 1024.2
20260904025110 70 45 6.0 9.0 0.00 0.00 0.00 74 1024.4
20260904024110 69 45 7.0 9.0 0.00 0.00 0.00 75 1024.4
20260904023029 69 45 7.0 9.0 0.00 0.00 0.00 74 1024.4
20260904022050 69 45 7.0 9.0 0.00 0.00 0.00 74 1024.4
20260904021030 70 45 5.0 8.0 0.00 0.00 0.00 73 1024.5
20260904020030 70 23 4.0 8.0 0.00 0.00 0.00 72 1024.5
20260904015030 70 45 4.0 6.0 0.00 0.00 0.00 73 1024.7
20260904014029 70 45 4.0 7.0 0.00 0.00 0.00 73 1024.6
20260904013029 71 68 4.0 6.0 0.00 0.00 0.00 73 1024.6
20260904012029 71 45 4.0 8.0 0.00 0.00 0.00 73 1024.9
20260904011030 71 23 4.0 7.0 0.00 0.00 0.00 72 1024.7
20260904010050 72 0.0 2.0 0.00 0.00 0.00 72 1024.8
20260904005031 71 23 1.0 5.0 0.00 0.00 0.00 74 1024.9
20260904004029 71 45 3.0 6.0 0.00 0.00 0.00 73 1025.1
20260904003029 72 45 4.0 7.0 0.00 0.00 0.00 72 1025.2
20260904002029 73 0.0 2.0 0.00 0.00 0.00 71 1025.4
20260904001030 73 0.0 0.0 0.00 0.00 0.00 72 1025.2
20260904000050 73 0.0 0.0 0.00 0.00 0.00 71 1025.2
20260903235029 73 158 1.0 4.0 0.00 0.00 0.00 72 1025.3
20260903234029 73 23 4.0 6.0 0.00 0.00 0.00 72 1025.1
20260903233029 73 45 3.0 5.0 0.00 0.00 0.00 70 1025.1
20260903232029 73 45 4.0 7.0 0.00 0.00 0.00 70 1025.0
20260903231029 74 68 1.0 3.0 0.00 0.00 0.00 70 1025.2
20260903230029 74 45 2.0 4.0 0.00 0.00 0.00 70 1025.2
20260903225029 74 23 2.0 3.0 0.00 0.00 0.00 70 1025.1
20260903224049 74 293 1.0 4.0 0.00 0.00 0.00 70 1025.1
20260903223029 75 90 1.0 3.0 0.00 0.00 0.00 71 1025.1
20260903222029 75 0.0 2.0 0.00 0.00 0.00 70 1025.1
20260903221029 75 45 2.0 5.0 0.00 0.00 0.00 70 1025.2
20260903220049 75 68 3.0 6.0 0.00 0.00 0.00 70 1025.1
20260903215029 76 338 3.0 5.0 0.00 0.00 0.00 68 1025.1
20260903214029 76 338 5.0 7.0 0.00 0.00 0.00 69 1025.0
20260903213029 76 338 4.0 6.0 0.00 0.00 0.00 69 1025.1
20260903212029 76 0 3.0 7.0 0.00 0.00 0.00 68 1025.2
20260903211029 76 0 3.0 7.0 0.00 0.00 0.00 68 1025.2
20260903210049 77 0 1.0 3.0 0.00 0.00 0.00 68 1025.3
20260903205029 77 338 2.0 5.0 0.00 0.00 0.00 68 1025.3
20260903204029 78 203 1.0 3.0 0.00 0.00 0.00 69 1025.5
20260903203029 78 203 2.0 5.0 0.00 0.00 0.00 69 1025.4
20260903202109 78 248 3.0 4.0 0.00 0.00 0.00 68 1025.4
20260903201029 78 248 2.0 4.0 0.00 0.00 0.00 67 1025.3
20260903200029 79 270 3.0 5.0 0.00 0.00 0.00 65 1024.9
20260903195049 79 0.0 2.0 0.00 0.00 0.00 64 1024.9
20260903194029 79 338 1.0 2.0 0.00 0.00 0.00 64 1024.7
20260903193029 80 338 2.0 4.0 0.00 0.00 0.00 63 1024.4
20260903192029 80 45 1.0 2.0 0.00 0.00 0.00 62 1024.2
20260903191029 81 180 1.0 3.0 0.00 0.00 0.00 62 1024.0
20260903190029 81 315 1.0 4.0 0.00 0.00 0.00 61 1023.8
20260903185029 81 315 3.0 5.0 0.00 0.00 0.00 60 1023.8
20260903184029 82 248 2.0 4.0 0.00 0.00 0.00 60 1023.7
20260903183028 82 248 2.0 4.0 0.00 0.00 0.00 59 1023.7
20260903182028 82 248 3.0 7.0 0.00 0.00 0.00 58 1023.5
20260903181049 83 203 4.0 8.0 0.00 0.00 0.00 58 1023.5
20260903180029 83 180 5.0 10.0 0.00 0.00 0.00 57 1023.3
20260903175049 84 180 5.0 12.0 0.00 0.00 0.00 55 1023.3
20260903174029 85 180 4.0 8.0 0.00 0.00 0.00 52 1023.2
20260903173029 86 180 4.0 9.0 0.00 0.00 0.00 49 1023.2
20260903172028 86 158 3.0 7.0 0.00 0.00 0.00 48 1023.2
20260903171028 86 135 5.0 11.0 0.00 0.00 0.00 47 1023.2
20260903170028 87 135 5.0 11.0 0.00 0.00 0.00 46 1023.3
20260903165028 88 158 4.0 11.0 0.00 0.00 0.00 45 1023.3
20260903164048 88 135 5.0 14.0 0.00 0.00 0.00 44 1023.3
20260903163028 88 158 5.0 12.0 0.00 0.00 0.00 44 1023.1
20260903162028 88 158 7.0 13.0 0.00 0.00 0.00 43 1023.2
20260903161028 89 135 7.0 13.0 0.00 0.00 0.00 42 1023.2
20260903160028 89 0 7.0 15.0 0.00 0.00 0.00 42 1023.2
20260903155028 89 135 7.0 14.0 0.00 0.00 0.00 41 1023.2
20260903154028 90 135 8.0 16.0 0.00 0.00 0.00 40 1023.0
20260903153028 91 158 7.0 14.0 0.00 0.00 0.00 39 1023.2
20260903152028 91 180 7.0 14.0 0.00 0.00 0.00 37 1023.2
20260903151028 91 180 8.0 14.0 0.00 0.00 0.00 37 1023.2
20260903150028 92 180 6.0 14.0 0.00 0.00 0.00 36 1023.4
20260903145028 91 180 7.0 15.0 0.00 0.00 0.00 35 1023.3
20260903144028 91 180 5.0 11.0 0.00 0.00 0.00 35 1023.2
20260903143027 92 180 5.0 13.0 0.00 0.00 0.00 35 1023.4
20260903142027 92 135 5.0 12.0 0.00 0.00 0.00 35 1023.4
20260903141027 91 113 5.0 11.0 0.00 0.00 0.00 36 1023.5
20260903140027 91 158 3.0 10.0 0.00 0.00 0.00 36 1023.5
20260903135029 90 113 3.0 9.0 0.00 0.00 0.00 38 1023.7
20260903134049 90 135 5.0 13.0 0.00 0.00 0.00 38 1023.8
20260903133029 90 135 3.0 8.0 0.00 0.00 0.00 39 1024.0
20260903132049 90 135 3.0 11.0 0.00 0.00 0.00 38 1024.0
20260903131049 89 158 2.0 8.0 0.00 0.00 0.00 39 1023.9
20260903130029 88 158 4.0 10.0 0.00 0.00 0.00 40 1024.0
20260903125049 88 158 3.0 10.0 0.00 0.00 0.00 40 1024.0
20260903124029 88 135 4.0 8.0 0.00 0.00 0.00 41 1024.1
20260903123029 87 158 3.0 7.0 0.00 0.00 0.00 41 1024.2
20260903122029 87 113 3.0 9.0 0.00 0.00 0.00 41 1024.3
20260903121029 87 158 3.0 7.0 0.00 0.00 0.00 42 1024.4
20260903120029 86 158 4.0 7.0 0.00 0.00 0.00 42 1024.5
20260903115109 86 90 2.0 6.0 0.00 0.00 0.00 43 1024.6
20260903114029 85 180 3.0 10.0 0.00 0.00 0.00 44 1024.6
20260903113029 85 158 4.0 10.0 0.00 0.00 0.00 45 1024.6
20260903112029 85 113 2.0 8.0 0.00 0.00 0.00 45 1024.7
20260903111029 84 158 2.0 6.0 0.00 0.00 0.00 46 1024.8
20260903110049 83 180 4.0 9.0 0.00 0.00 0.00 48 1024.9
20260903105049 83 135 4.0 9.0 0.00 0.00 0.00 48 1025.1
20260903104029 82 135 2.0 10.0 0.00 0.00 0.00 49 1025.2
20260903103028 82 90 3.0 7.0 0.00 0.00 0.00 49 1025.4
20260903102029 82 135 3.0 9.0 0.00 0.00 0.00 49 1025.5
20260903101109 81 158 3.0 7.0 0.00 0.00 0.00 50 1025.6
20260903100028 81 90 2.0 7.0 0.00 0.00 0.00 51 1025.6
20260903095029 80 135 3.0 8.0 0.00 0.00 0.00 53 1025.6
20260903094028 79 158 2.0 5.0 0.00 0.00 0.00 55 1025.6
20260903093029 79 158 2.0 5.0 0.00 0.00 0.00 55 1025.6
20260903092028 79 113 3.0 9.0 0.00 0.00 0.00 55 1025.6
20260903091029 78 180 4.0 7.0 0.00 0.00 0.00 57 1025.5
20260903090028 79 135 2.0 7.0 0.00 0.00 0.00 55 1025.6
20260903085049 79 135 2.0 7.0 0.00 0.00 0.00 54 1025.5
20260903084028 79 135 2.0 5.0 0.00 0.00 0.00 55 1025.3
20260903083029 78 158 2.0 5.0 0.00 0.00 0.00 56 1025.3
20260903082048 78 113 1.0 4.0 0.00 0.00 0.00 59 1025.3
20260903081028 76 90 2.0 6.0 0.00 0.00 0.00 59 1025.2
20260903080049 75 90 4.0 7.0 0.00 0.00 0.00 61 1025.2
20260903075028 75 90 3.0 5.0 0.00 0.00 0.00 64 1025.2
20260903074028 73 68 4.0 7.0 0.00 0.00 0.00 67 1025.0